EW8345 Weather Reports


time (UTC)temp
F
wind
direction
speed
knots
gust
knots
rain 1hr
in
rain 24hr
in
rain mn
in
humidity
%
barometer
mb
20260906224545 76 175 3.5 7.0 0.00 0.03 0.00 20 1024.1
20260906223046 77 150 3.5 7.8 0.00 0.03 0.00 20 1024.1
20260906221543 77 136 3.5 6.1 0.00 0.03 0.00 19 1024.3
20260906220040 77 153 4.3 7.0 0.00 0.03 0.00 18 1024.3
20260906214539 77 172 4.3 10.4 0.00 0.03 0.00 17 1024.4
20260906213037 82 116 1.7 7.8 0.00 0.03 0.00 14 1024.5
20260906211534 80 140 2.6 7.0 0.00 0.03 0.00 17 1024.8
20260906210033 76 178 1.7 7.8 0.00 0.03 0.00 22 1024.9
20260906204532 76 163 2.6 5.2 0.00 0.03 0.00 22 1025.0
20260906203029 77 153 1.7 7.0 0.00 0.03 0.00 24 1025.0
20260906201527 78 327 0.9 3.5 0.00 0.03 0.00 26 1025.1
20260906200027 79 50 1.7 7.0 0.00 0.03 0.00 25 1025.3
20260906194524 75 133 0.0 5.2 0.00 0.03 0.00 28 1025.4
20260906193022 76 296 1.7 7.0 0.00 0.03 0.00 27 1025.5
20260906191521 77 163 1.7 5.2 0.00 0.03 0.00 27 1025.7
20260906190019 74 323 0.9 5.2 0.00 0.03 0.00 30 1025.8
20260906184522 78 267 1.7 4.3 0.00 0.03 0.00 27 1025.9
20260906183023 77 176 1.7 6.1 0.00 0.03 0.00 28 1026.2
20260906181512 74 202 0.9 3.5 0.00 0.03 0.00 31 1026.4
20260906180008 72 204 0.9 3.5 0.00 0.03 0.00 30 1026.7
20260906174507 71 319 0.0 2.6 0.00 0.03 0.00 33 1027.0
20260906173003 72 23 0.9 3.5 0.00 0.03 0.00 34 1027.2
20260906171501 70 24 0.0 4.3 0.00 0.03 0.00 37 1027.4
20260906170107 68 331 0.9 4.3 0.00 0.03 0.00 34 1027.5
20260906164557 67 15 2.6 7.0 0.00 0.03 0.00 35 1027.7
20260906163055 66 317 1.7 5.2 0.00 0.03 0.00 41 1027.8
20260906161552 66 333 0.9 4.3 0.00 0.03 0.00 42 1027.9
20260906160050 64 315 0.9 3.5 0.00 0.03 0.00 45 1027.9
20260906154546 61 147 0.9 1.7 0.00 0.03 0.00 55 1027.8
20260906153042 60 146 0.0 2.6 0.00 0.03 0.00 59 1027.8
20260906151548 58 145 0.0 0.0 0.00 0.03 0.00 64 1027.9
20260906150035 56 145 0.0 1.7 0.00 0.03 0.00 71 1028.0
20260906144533 55 145 0.9 2.6 0.00 0.03 0.00 73 1028.0
20260906143029 53 144 0.0 0.0 0.00 0.03 0.00 79 1028.0
20260906141528 50 144 0.0 1.7 0.00 0.03 0.00 82 1028.1
20260906140027 48 144 0.0 0.9 0.00 0.03 0.00 87 1028.1
20260906134526 46 144 0.0 2.6 0.00 0.03 0.00 88 1028.1
20260906133020 46 144 0.0 2.6 0.00 0.03 0.00 89 1027.8
20260906131520 45 149 0.0 1.7 0.00 0.03 0.00 89 1027.8
20260906130019 44 149 0.0 2.6 0.00 0.03 0.00 89 1027.7
20260906124518 45 152 0.0 1.7 0.00 0.03 0.00 89 1027.6
20260906123029 44 152 0.0 0.9 0.00 0.03 0.00 89 1027.5
20260906121515 45 152 0.0 1.7 0.00 0.03 0.00 89 1027.4
20260906120013 45 152 0.9 2.6 0.00 0.03 0.00 88 1027.6
20260906114513 46 153 0.0 4.3 0.00 0.03 0.00 88 1027.6
20260906113010 45 153 0.9 2.6 0.00 0.03 0.00 89 1027.6
20260906111508 45 153 0.0 0.0 0.00 0.03 0.00 88 1027.6
20260906110007 46 153 0.0 0.0 0.00 0.03 0.00 89 1027.6
20260906104511 46 153 0.0 1.7 0.00 0.03 0.00 89 1027.5
20260906103013 46 153 0.0 0.0 0.00 0.03 0.00 89 1027.6
20260906101505 46 153 0.0 0.0 0.00 0.03 0.00 88 1027.5
20260906100009 46 153 0.0 0.0 0.00 0.03 0.00 88 1027.4
20260906094504 47 153 0.9 2.6 0.00 0.03 0.00 87 1027.4
20260906093100 47 156 0.0 4.3 0.00 0.03 0.00 87 1027.5
20260906093001 47 156 0.9 4.3 0.00 0.03 0.00 87 1027.5
20260906091556 47 154 0.9 2.6 0.00 0.03 0.00 85 1027.5
20260906090056 48 156 0.0 2.6 0.00 0.03 0.00 87 1027.7
20260906084555 47 155 0.0 0.0 0.00 0.03 0.00 87 1027.7
20260906083052 47 171 0.0 2.6 0.00 0.03 0.00 86 1027.5
20260906081550 48 173 0.0 2.6 0.00 0.03 0.00 85 1027.6
20260906080051 49 173 0.0 2.6 0.00 0.03 0.00 85 1027.5
20260906074548 49 173 1.7 3.5 0.00 0.03 0.00 86 1027.7
20260906073045 47 171 0.0 0.9 0.00 0.03 0.00 86 1027.7
20260906071543 49 171 0.0 3.5 0.00 0.03 0.00 84 1027.7
20260906070042 48 172 1.7 3.5 0.00 0.03 0.00 85 1027.8
20260906064542 49 173 0.0 0.0 0.00 0.03 0.00 85 1027.8
20260906063037 49 173 0.0 0.0 0.00 0.03 0.00 84 1027.9
20260906061535 50 172 0.0 2.6 0.00 0.03 0.00 84 1027.9
20260906060034 49 172 0.0 0.0 0.00 0.03 0.03 85 1027.8
20260906054538 51 172 0.0 3.5 0.00 0.03 0.03 83 1027.9
20260906053032 51 162 0.9 3.5 0.00 0.03 0.03 83 1028.0
20260906051531 51 154 0.0 4.3 0.00 0.03 0.03 84 1028.0
20260906050030 53 147 2.6 6.1 0.00 0.03 0.03 80 1028.0
20260906044530 54 160 0.0 0.0 0.00 0.03 0.03 78 1028.1
20260906043029 55 159 0.0 4.3 0.01 0.03 0.03 77 1028.2
20260906041529 55 157 1.7 4.3 0.01 0.03 0.03 78 1028.2
20260906040028 55 180 3.5 6.1 0.01 0.03 0.03 78 1028.4
20260906034528 56 125 1.7 6.1 0.01 0.03 0.03 74 1028.4
20260906033027 59 153 5.2 9.6 0.00 0.02 0.02 64 1028.4
20260906031526 59 165 0.0 4.3 0.00 0.02 0.02 67 1027.9
20260906030027 58 165 0.9 6.1 0.00 0.02 0.02 65 1027.6
20260906024526 59 147 0.0 2.6 0.00 0.02 0.02 62 1027.3
20260906023027 59 149 0.9 7.0 0.00 0.02 0.02 65 1027.2
20260906021536 63 143 4.3 7.8 0.00 0.02 0.02 58 1027.3
20260906020025 62 177 2.6 8.7 0.00 0.02 0.02 56 1027.2
20260906014526 61 171 4.3 7.8 0.00 0.02 0.02 67 1026.8
20260906013034 63 328 0.0 0.0 0.00 0.02 0.02 59 1026.5
20260906011523 63 328 0.0 0.0 0.00 0.02 0.02 58 1026.5
20260906010023 64 328 0.0 2.6 0.00 0.02 0.02 55 1026.6
20260906004522 66 360 0.9 4.3 0.00 0.02 0.02 48 1026.6
20260906003022 65 140 0.0 4.3 0.00 0.02 0.02 56 1026.6
20260906001520 66 163 0.0 1.7 0.00 0.02 0.02 59 1026.5
20260906000022 67 161 1.7 5.2 0.00 0.02 0.02 53 1026.6
20260905234517 64 251 0.0 2.6 0.02 0.02 0.02 60 1026.6
20260905233019 62 334 0.0 2.6 0.02 0.02 0.02 70 1026.4
20260905231516 60 323 0.0 1.7 0.02 0.02 0.02 78 1026.5
20260905230015 60 325 0.0 2.6 0.02 0.02 0.02 77 1026.2